Flag Weather past 2 weeks in Billings, Montana, U.S.A.

Now
46 °F

Passing clouds.


Feels Like: 41 °F
Forecast: 38 / 50 °F
Wind: 10 mph from Southwest

Location: Billings Logan International Airport

Current Time: Nov 28, 2014 at 5:22:37 AM

Latest Report: Nov 28, 2014 at 4:53 AM


Visibility: 10 mi

Pressure: 29.67 "Hg

Humidity: 54%

Dew point: 30 °F

Location of BillingsLocation

Historic Weather in Billings — Graph

°F

Billings temperature yesterday

Maximum temperature yesterday: 51 °F (at 2:53 PM)
Minimum temperature yesterday: 27 °F (at 1:53 AM)
Average temperature yesterday: 40 °F

Past Weeks' High & Low Weather Summary

 TemperatureHumidityPressure
High51 °F (Nov 27, 2:53 PM)100% (Nov 26, 4:53 AM)30.66 "Hg (Nov 26, 4:53 AM)
Low-8 °F (Nov 13, 5:53 AM)30% (Nov 23, 12:53 PM)29.40 "Hg (Nov 22, 1:53 PM)
Average27 °F63%30.11 "Hg
* Reported Nov 13 3:53 AM — Nov 28 3:53 AM, Billings, Weather by CustomWeather, © 2014

Note: Actual official high and low records may vary slightly from our data, if they occured in-between our weather recording intervals... More about our weather records

Advertising

Billings weather history for previous 24 hours

 ConditionsComfort  
Time TempWeatherWind HumidityBarometerVisibility
3:53 AM
Nov 28
48 °FPassing clouds.9 mph50%29.67 "Hg10 mi
2:53 AM50 °FPassing clouds.9 mph46%29.69 "Hg10 mi
1:53 AM50 °FOvercast.12 mph48%29.71 "Hg10 mi
12:53 AM46 °FMostly cloudy.14 mph54%29.74 "Hg10 mi
11:53 PM
Nov 27
47 °FMostly cloudy.12 mph52%29.76 "Hg10 mi
10:53 PM49 °FOvercast.10 mph48%29.78 "Hg10 mi
9:53 PM47 °FOvercast.12 mph52%29.78 "Hg10 mi
8:53 PM49 °FOvercast.17 mph46%29.80 "Hg10 mi
7:53 PM49 °FPassing clouds.22 mph46%29.82 "Hg10 mi
6:53 PM46 °FPassing clouds.17 mph51%29.85 "Hg10 mi
5:53 PM47 °FPassing clouds.18 mph50%29.87 "Hg10 mi
4:53 PM47 °FPassing clouds.24 mph52%29.88 "Hg10 mi
3:53 PM50 °FScattered clouds.17 mph46%29.89 "Hg10 mi
2:53 PM51 °FPassing clouds.18 mph44%29.89 "Hg10 mi
1:53 PM50 °FPassing clouds.17 mph46%29.88 "Hg10 mi
12:53 PM47 °FPassing clouds.26 mph52%29.91 "Hg10 mi
11:53 AM43 °FScattered clouds.21 mph60%29.94 "Hg10 mi
10:53 AM42 °FScattered clouds.22 mph62%29.96 "Hg10 mi
9:53 AM41 °FScattered clouds.21 mph65%29.97 "Hg10 mi
8:53 AM37 °FPartly sunny.18 mph73%29.98 "Hg10 mi
7:53 AM36 °FBroken clouds.15 mph75%30.00 "Hg10 mi
6:53 AM30 °FPartly cloudy.12 mph89%30.03 "Hg10 mi
5:53 AM28 °FPassing clouds.12 mph93%30.05 "Hg10 mi
Weather by CustomWeather, © 2014

See weather overviewHow to use our weather pages